Time,TemperatureF,DewpointF,PressureIn,WindDirection,WindDirectionDegrees,WindSpeedMPH,WindSpeedGustMPH,Humidity,HourlyPrecipIn,Conditions,Clouds,dailyrainin,SoftwareType,DateUTC
2013-04-01 00:03:00,44.3,37.2,29.82,SE,137,3.0,12.0,76,0.00,,---,0.00,VWS V13.01,2013-04-01 04:03:00,
2013-04-01 01:03:00,44.6,36.8,29.79,East,84,2.0,11.0,74,0.00,,---,0.00,VWS V13.01,2013-04-01 05:03:00,
2013-04-01 02:03:00,42.4,38.8,29.77,SSE,149,4.0,12.0,87,0.06,,---,0.06,VWS V13.01,2013-04-01 06:03:00,
2013-04-01 03:03:00,41.8,39.1,29.74,East,87,3.0,11.0,90,0.21,,---,0.21,VWS V13.01,2013-04-01 07:03:00,
2013-04-01 04:03:00,41.3,38.9,29.67,NNW,340,0.0,4.0,91,0.27,,---,0.33,VWS V13.01,2013-04-01 08:03:00,
2013-04-01 05:03:00,40.5,38.1,29.61,NNW,331,0.0,4.0,91,0.27,,---,0.48,VWS V13.01,2013-04-01 09:03:00,
2013-04-01 06:03:00,40.2,38.1,29.56,NE,52,0.0,4.0,92,0.24,,---,0.57,VWS V13.01,2013-04-01 10:03:00,
2013-04-01 07:03:00,41.7,39.5,29.51,NW,324,3.0,13.0,92,0.12,,---,0.60,VWS V13.01,2013-04-01 11:03:00,
2013-04-01 08:03:00,41.8,39.7,29.50,NNW,342,0.0,8.0,92,0.05,,---,0.62,VWS V13.01,2013-04-01 12:03:00,
2013-04-01 09:03:00,41.8,39.7,29.50,West,267,0.0,4.0,92,0.02,,---,0.62,VWS V13.01,2013-04-01 13:03:00,
2013-04-01 11:03:00,42.4,39.4,29.53,WSW,248,0.0,5.0,89,0.00,,---,0.62,VWS V13.01,2013-04-01 15:03:00,
2013-04-01 12:03:00,45.4,40.5,29.53,South,190,2.0,4.0,83,0.00,,---,0.62,VWS V13.01,2013-04-01 16:03:00,
2013-04-01 13:03:00,48.2,40.3,29.51,SSE,150,1.0,6.0,74,0.00,,---,0.62,VWS V13.01,2013-04-01 17:03:00,
2013-04-01 14:03:00,51.6,42.2,29.50,SSE,167,5.0,9.0,70,0.00,,---,0.62,VWS V13.01,2013-04-01 18:03:00,
2013-04-01 15:03:00,46.8,40.0,29.50,ESE,122,6.0,15.0,77,0.00,,---,0.62,VWS V13.01,2013-04-01 19:03:00,
2013-04-01 16:03:00,49.5,41.6,29.47,South,186,3.0,16.0,74,0.00,,---,0.62,VWS V13.01,2013-04-01 20:03:00,
2013-04-01 17:03:00,47.4,40.9,29.47,SE,130,5.0,15.0,78,0.00,,---,0.62,VWS V13.01,2013-04-01 21:03:00,
2013-04-01 18:03:00,45.7,42.4,29.48,South,171,0.0,16.0,88,0.01,,---,0.63,VWS V13.01,2013-04-01 22:03:00,
2013-04-01 19:03:00,44.9,41.6,29.49,South,182,0.0,10.0,88,0.03,,---,0.65,VWS V13.01,2013-04-01 23:03:00,
2013-04-01 20:03:00,41.1,37.2,29.56,West,272,0.0,6.0,86,0.02,,---,0.65,VWS V13.01,2013-04-02 00:03:00,
2013-04-01 21:03:00,39.5,34.2,29.58,WNW,284,0.0,5.0,81,0.00,,---,0.65,VWS V13.01,2013-04-02 01:03:00,
2013-04-01 22:03:00,36.2,28.7,29.61,SSW,203,0.0,6.0,74,0.00,,---,0.65,VWS V13.01,2013-04-02 02:03:00,
2013-04-01 23:03:00,33.7,28.5,29.64,SSW,206,0.0,2.0,81,0.00,,---,0.65,VWS V13.01,2013-04-02 03:03:00,